Weather observations for the past three days for
Cape Romanzof, Cape Romanzof LRRS Airport
Imperial (Metric)
Date Time (akdt) Wind (mph) Vis. (mi.) Weather Sky Cond. Temperature (ºF) Relative Humidity Wind Chill (°F) Heat Index (°F) Pressure Precipitation (in)
Air Dwpt 6 hour altimeter (in) sea level (mb) 1 hr 3 hr 6 hr
Max. Min.
15 12:55 W 13 10.00 Overcast OVC007 41.4 39.6 93% 35 29.66 1004.8 0.02
15 11:55 NW 10 9.00 Light Showers Rain BKN004 40.6 39.6 96% 35 29.65 1004.6
15 10:55 NW 13 3.00 Drizzle Fog/Mist OVC005 39.9 38.8 96% 33 29.64 1004.3 0.01
15 09:55 W 12 1.50 Light Showers Rain Fog/Mist OVC005 39.6 38.5 41.9 39.2 96% 33 29.64 1004.0 0.01 0.01
15 08:55 NW 16 10.00 Overcast OVC007 39.6 37.8 93% 32 29.62 1003.5
15 07:55 NW 13 10.00 Overcast OVC006 40.5 38.3 92% 34 29.61 1003.0
15 06:55 NW 12 10.00 Overcast OVC007 40.5 38.3 92% 34 29.59 1002.5 0.01
15 05:55 NW 12 10.00 Light Showers Rain OVC006 41 39.2 93% 35 29.59 1002.3 0.01
15 04:55 NW 14 10.00 Overcast OVC006 41.5 39.7 93% 35 29.58 1001.9
15 03:55 NW 16 10.00 Light Rain OVC004 41.7 40.8 41.9 40.5 97% 34 29.57 1001.7 0.01 0.1
15 02:55 NW 12 10.00 Light Rain BKN004 41.5 40.6 97% 36 29.57 1001.7 0.03
15 01:55 NW 17 10.00 Light Rain OVC004 40.8 39.9 97% 33 29.56 1001.3 0.02
15 00:55 NW 13 4.00 Light Rain OVC002 40.6 40.3 99% 34 29.54 1000.9 0.02 0.04
14 23:55 NW 14 10.00 Light Rain OVC002 40.8 40.6 99% 34 29.53 1000.3 0.01
14 22:55 NW 16 2.50 Light Rain Fog/Mist BKN002 41 40.8 99% 33 29.51 999.7 0.02
14 21:55 NW 18 7.00 Light Showers Rain OVC002 41.7 41.4 42.1 40.8 99% 34 29.5 999.4 0.01 0.02
14 20:55 NW 16 10.00 Light Showers Rain BKN002 41.9 41.4 98% 35 29.5 999.3
14 19:55 NW 20 10.00 Light Showers Rain BKN002 41.5 41.2 99% 33 29.5 999.2
14 18:55 NW 21 G 29 4.00 Light Showers Rain and Breezy OVC002 41.5 41 98% 33 29.49 999.1 0.01 0.01
14 17:55 NW 16 G 29 10.00 Overcast OVC004 41.9 40.8 96% 35 29.49 998.9
14 16:55 NW 17 10.00 Overcast OVC004 41.2 39.7 95% 33 29.48 998.9
14 15:55 NW 14 G 24 10.00 Overcast OVC005 41.4 39.7 43 40.6 94% 35 29.48 998.6
14 14:55 NW 15 10.00 Overcast OVC005 41 39 93% 34 29.47 998.3
14 13:55 NW 17 10.00 Mostly Cloudy BKN006 41 38.3 90% 33 29.46 998.1
14 12:55 NW 18 G 24 10.00 Mostly Cloudy BKN008 41.4 38.1 88% 33 29.46 997.9
14 11:55 NW 18 10.00 Mostly Cloudy BKN009 41.5 38.3 88% 34 29.45 997.7
14 10:55 N 17 10.00 Mostly Cloudy BKN011 42.4 38.1 85% 35 29.44 997.4
14 09:55 NW 20 10.00 Mostly Cloudy BKN011 42.8 38.5 45.9 42.3 85% 35 29.44 997.3
14 08:55 N 14 10.00 Mostly Cloudy BKN011 BKN075 BKN090 42.8 39.4 88% 36 29.44 997.3
14 07:55 N 14 10.00 Mostly Cloudy SCT014 SCT033 BKN060 43.2 39.2 86% 37 29.44 997.3
14 06:55 N 12 10.00 Mostly Cloudy FEW015 BKN075 43.3 38.5 83% 38 29.43 997.0
14 05:55 E 16 10.00 Mostly Cloudy BKN075 43.2 38.3 83% 36 29.43 996.9
14 04:55 N 13 10.00 Light Showers Rain FEW032 SCT044 BKN070 43.3 39.4 86% 37 29.43 997.0
14 03:55 NE 12 10.00 Overcast OVC028 43.9 40.1 45.9 42.3 87% 38 29.43 997.0
14 02:55 NE 8 10.00 Overcast OVC032 43.9 39.7 85% 40 29.44 997.2
14 01:55 NE 12 10.00 Overcast OVC033 43.2 39.4 87% 38 29.43 996.9
14 00:55 NE 9 10.00 Overcast OVC035 42.6 39.4 88% 38 29.42 996.7
13 23:55 NE 10 10.00 Overcast OVC037 43.2 39.6 87% 38 29.42 996.7
13 22:55 Calm 10.00 Mostly Cloudy BKN037 44.4 39.9 84% 29.43 996.9
13 21:55 W 1 10.00 Mostly Cloudy FEW010 BKN037 BKN110 45.1 40.3 46.4 43.7 83% 29.43 996.9
13 20:55 SW 7 10.00 Mostly Cloudy FEW009 BKN033 BKN120 44.8 40.6 85% 41 29.43 996.8
13 19:55 SW 8 10.00 Mostly Cloudy FEW009 BKN017 44.6 40.6 86% 41 29.43 997.1
13 18:55 SW 10 10.00 Overcast FEW009 OVC022 44.2 40.5 87% 39 29.43 997.2
13 17:55 SW 13 10.00 Mostly Cloudy BKN028 44.8 40.3 84% 39 29.44 997.4
13 16:55 SW 17 10.00 Mostly Cloudy BKN013 44.6 40.5 85% 38 29.44 997.3
13 15:55 SW 17 10.00 Overcast OVC010 43.9 39 44.2 41.5 83% 37 29.45 997.6 0.01
13 14:55 SW 16 10.00 Overcast OVC012 43.5 39 84% 37 29.44 997.5
13 13:55 SW 18 10.00 Mostly Cloudy BKN010 43.7 40.8 90% 36 29.45 997.6
13 12:55 SW 18 10.00 Overcast OVC008 43 40.3 90% 35 29.45 997.6 0.01
13 11:55 SW 17 10.00 Overcast OVC006 42.4 40.8 94% 35 29.45 997.7
13 10:55 SW 22 10.00 Mostly Cloudy and Breezy BKN005 42.1 40.8 95% 33 29.45 997.5 0.01
13 09:55 SW 20 10.00 Overcast OVC006 42.1 40.8 42.1 37.4 95% 34 29.44 997.2
13 08:55 SW 17 10.00 Overcast OVC006 41 39.7 95% 33 29.44 997.2
13 07:55 SW 13 10.00 Overcast OVC005 39 38.1 97% 32 29.45 997.5
13 06:55 SW 14 10.00 Overcast OVC005 37.8 37.6 99% 30 29.45 997.6
13 05:55 SW 15 10.00 Overcast OVC003 38.8 38.7 99% 31 29.43 997.0
13 04:55 SW 18 0.25 Light Showers Rain Fog VV002 39.7 39.6 99% 31 29.43 997.0
13 03:55 SW 21 0.50 Light Showers Rain Fog and Breezy BKN002 40.5 40.3 50.5 45.3 99% 32 29.42 996.5 0.01 0.07
13 02:55 SW 21 0.25 Light Rain Patches Fog and Breezy VV002 40.5 40.3 99% 32 29.42 996.5
13 01:55 SW 18 G 24 0.25 Light Showers Rain Patches Fog VV002 40.6 40.6 100% 32 29.41 996.2
13 00:55 W 17 G 24 10.00 Light Rain BKN002 41.7 41.4 99% 34 29.38 995.3 0.01 0.06
12 22:55 NW 16 0.50 Light Rain Fog VV003 43.7 43.7 100% 37 29.34 993.8 0.02
12 21:55 NW 14 0.15 Light Rain Fog VV002 45.5 45.1 49.8 45.7 99% 40 29.33 993.3 0.05
12 20:55 NW 9 10.00 Light Rain BKN006 48.9 46.8 92% 45 29.31 992.6 0.02
12 19:55 N 12 10.00 Light Rain OVC008 49.5 47.3 92% 45 29.3 992.3 0.01
12 18:55 NE 13 10.00 Light Showers Rain BKN006 BKN026 49.1 47.1 93% 45 29.3 992.4 0.02
12 17:55 NE 13 10.00 Showers Rain SCT004 BKN027 48.6 47.3 95% 44 29.31 992.6 0.02
12 16:55 NE 8 G 40 10.00 Light Showers Rain OVC012 50.4 46.6 87% 29.32 992.9
12 15:55 Vrbl 5 8.00 Rain BKN010 BKN042 49.1 45.5 49.8 45.7 87% 48 29.33 993.5 0.06 0.15
12 14:55 Calm 3.00 Rain BKN010 BKN034 48.7 46.9 94% 29.35 994.3 0.02
12 13:55 Calm 10.00 Light Rain BKN006 BKN045 48.2 45.7 91% 29.38 994.9 0.03
Date Time (akdt) Wind (mph) Vis. (mi.) Weather Sky Cond. Air Dwpt Max. Min. Relative Humidity Wind Chill (°F) Heat Index (°F) altimeter (in) sea level (mb) 1 hr 3 hr 6 hr
6 hour
Temperature (ºF) Pressure Precipitation (in)